COSMOS 2550

Last updated on Wed Nov 05 2025 00:02:15 GMT+0000 (Coordinated Universal Time)

1 48865U 21056A 25308.71003927 .00005986 00000+0 18764-3 0 9998 2 48865 67.1437 59.0203 0008402 269.6433 90.3759 15.33828882244299
UTC large
Height (km)
Speed (km/s)
/
Latitude / Longitude
Inclination (degrees)
Orbital Period (minutes)
Azimuth
Elevation
Range (km)
Doppler Factor

Next 0 passes for location: London (51.5072 / 0.1276)

Sorry there are no passes over London.